| time (UTC) | temp F | wind direction | speed MPH | gust MPH | rain 1hr in | rain 24hr in | rain mn in | humidity % | barometer mb |
| 20260903034550 | 59 | 10 | 0.0 | 1.0 | 0.00 | 0.00 | 0.00 | 41 | 1008.0 |
| 20260903033049 | 59 | 10 | 0.0 | 6.0 | 0.00 | 0.00 | 0.00 | 38 | 1007.9 |
| 20260903031554 | 59 | 351 | 4.0 | 10.0 | 0.00 | 0.00 | 0.00 | 38 | 1007.6 |
| 20260903030048 | 60 | 38 | 3.0 | 10.0 | 0.00 | 0.00 | 0.00 | 40 | 1007.7 |
| 20260903024550 | 60 | 142 | 1.0 | 4.0 | 0.00 | 0.00 | 0.00 | 39 | 1007.7 |
| 20260903023101 | 61 | 146 | 0.0 | 5.0 | 0.00 | 0.00 | 0.00 | 39 | 1007.6 |
| 20260903021549 | 62 | 72 | 0.0 | 8.0 | 0.00 | 0.00 | 0.00 | 38 | 1007.7 |
| 20260903020046 | 62 | 108 | 0.0 | 3.0 | 0.00 | 0.00 | 0.00 | 38 | 1007.6 |
| 20260903014547 | 63 | 113 | 1.0 | 7.0 | 0.00 | 0.00 | 0.00 | 35 | 1007.4 |
| 20260903013047 | 64 | 121 | 0.0 | 3.0 | 0.00 | 0.00 | 0.00 | 35 | 1007.4 |
| 20260903011545 | 64 | 37 | 4.0 | 9.0 | 0.00 | 0.00 | 0.00 | 33 | 1007.3 |
| 20260903010044 | 65 | 36 | 5.0 | 10.0 | 0.00 | 0.00 | 0.00 | 30 | 1007.2 |
| 20260903004544 | 66 | 167 | 0.0 | 5.0 | 0.00 | 0.00 | 0.00 | 32 | 1007.0 |
| 20260903003049 | 66 | 39 | 0.0 | 8.0 | 0.00 | 0.00 | 0.00 | 33 | 1007.1 |
| 20260903001543 | 67 | 32 | 1.0 | 9.0 | 0.00 | 0.00 | 0.00 | 32 | 1007.1 |
| 20260903000042 | 67 | 355 | 1.0 | 6.0 | 0.00 | 0.00 | 0.00 | 33 | 1007.0 |
| 20260902234541 | 67 | 28 | 3.0 | 8.0 | 0.00 | 0.00 | 0.00 | 33 | 1007.0 |
| 20260902233040 | 67 | 131 | 1.0 | 10.0 | 0.00 | 0.00 | 0.00 | 32 | 1006.9 |
| 20260902231552 | 67 | 25 | 1.0 | 5.0 | 0.00 | 0.00 | 0.00 | 31 | 1007.0 |
| 20260902230040 | 66 | 28 | 4.0 | 11.0 | 0.00 | 0.00 | 0.00 | 32 | 1007.0 |
| 20260902224537 | 66 | 155 | 0.0 | 6.0 | 0.00 | 0.00 | 0.00 | 33 | 1007.0 |
| 20260902223036 | 65 | 28 | 0.0 | 7.0 | 0.00 | 0.00 | 0.00 | 31 | 1007.1 |
| 20260902221545 | 66 | 32 | 0.0 | 8.0 | 0.00 | 0.00 | 0.00 | 32 | 1007.0 |
| 20260902220036 | 66 | 360 | 4.0 | 11.0 | 0.00 | 0.00 | 0.00 | 32 | 1007.0 |
| 20260902214538 | 66 | 124 | 0.0 | 3.0 | 0.00 | 0.00 | 0.00 | 33 | 1007.1 |
| 20260902213036 | 66 | 129 | 0.0 | 4.0 | 0.00 | 0.00 | 0.00 | 33 | 1007.4 |
| 20260902211535 | 66 | 39 | 0.0 | 13.0 | 0.00 | 0.00 | 0.00 | 33 | 1007.7 |
| 20260902210037 | 66 | 117 | 0.0 | 8.0 | 0.00 | 0.00 | 0.00 | 34 | 1007.5 |
| 20260902204530 | 66 | 42 | 1.0 | 11.0 | 0.00 | 0.00 | 0.00 | 35 | 1007.5 |
| 20260902203028 | 65 | 38 | 1.0 | 12.0 | 0.00 | 0.00 | 0.00 | 34 | 1007.6 |
| 20260902201525 | 65 | 44 | 1.0 | 11.0 | 0.00 | 0.00 | 0.00 | 36 | 1007.6 |
| 20260902200022 | 64 | 36 | 1.0 | 8.0 | 0.00 | 0.00 | 0.00 | 38 | 1007.8 |
| 20260902194524 | 63 | 340 | 2.0 | 8.0 | 0.00 | 0.00 | 0.00 | 37 | 1007.8 |
| 20260902193016 | 62 | 29 | 1.0 | 9.0 | 0.00 | 0.00 | 0.00 | 38 | 1007.9 |
| 20260902191520 | 62 | 337 | 2.0 | 6.0 | 0.00 | 0.00 | 0.00 | 40 | 1008.0 |
| 20260902190019 | 62 | 125 | 0.0 | 3.0 | 0.00 | 0.00 | 0.00 | 40 | 1008.0 |
| 20260902184511 | 61 | 139 | 1.0 | 7.0 | 0.00 | 0.00 | 0.00 | 41 | 1008.1 |
| 20260902183006 | 60 | 30 | 0.0 | 6.0 | 0.00 | 0.00 | 0.00 | 41 | 1008.2 |
| 20260902181502 | 59 | 18 | 1.0 | 12.0 | 0.00 | 0.00 | 0.00 | 44 | 1008.1 |
| 20260902180058 | 58 | 41 | 5.0 | 14.0 | 0.00 | 0.00 | 0.00 | 44 | 1008.2 |
| 20260902174601 | 57 | 275 | 1.0 | 6.0 | 0.00 | 0.00 | 0.00 | 48 | 1008.2 |
| 20260902173051 | 56 | 270 | 1.0 | 9.0 | 0.00 | 0.00 | 0.00 | 51 | 1008.0 |
| 20260902171552 | 56 | 198 | 0.0 | 5.0 | 0.00 | 0.00 | 0.00 | 51 | 1007.9 |
| 20260902170045 | 55 | 198 | 0.0 | 2.0 | 0.00 | 0.00 | 0.00 | 53 | 1007.8 |
| 20260902164543 | 54 | 198 | 0.0 | 2.0 | 0.00 | 0.00 | 0.00 | 55 | 1007.9 |
| 20260902163041 | 54 | 198 | 0.0 | 1.0 | 0.00 | 0.00 | 0.00 | 56 | 1007.6 |
| 20260902161540 | 53 | 198 | 1.0 | 4.0 | 0.00 | 0.00 | 0.00 | 58 | 1007.4 |
| 20260902160047 | 53 | 198 | 0.0 | 0.0 | 0.00 | 0.00 | 0.00 | 58 | 1007.4 |
| 20260902154537 | 53 | 198 | 0.0 | 1.0 | 0.00 | 0.00 | 0.00 | 57 | 1007.3 |
| 20260902153034 | 52 | 198 | 0.0 | 4.0 | 0.00 | 0.00 | 0.00 | 56 | 1007.5 |
| 20260902151531 | 52 | 198 | 1.0 | 6.0 | 0.00 | 0.00 | 0.00 | 56 | 1007.2 |
| 20260902150030 | 52 | 198 | 1.0 | 3.0 | 0.00 | 0.00 | 0.00 | 57 | 1007.1 |
| 20260902144529 | 51 | 198 | 0.0 | 0.0 | 0.00 | 0.00 | 0.00 | 57 | 1007.2 |
| 20260902143027 | 51 | 198 | 0.0 | 2.0 | 0.00 | 0.00 | 0.00 | 57 | 1007.0 |
| 20260902141522 | 50 | 198 | 0.0 | 0.0 | 0.00 | 0.00 | 0.00 | 58 | 1006.8 |
| 20260902140021 | 50 | 198 | 0.0 | 0.0 | 0.00 | 0.00 | 0.00 | 57 | 1006.5 |
| 20260902134518 | 50 | 198 | 0.0 | 2.0 | 0.00 | 0.00 | 0.00 | 56 | 1006.4 |
| 20260902133017 | 50 | 198 | 0.0 | 0.0 | 0.00 | 0.00 | 0.00 | 56 | 1006.2 |
| 20260902131515 | 50 | 198 | 0.0 | 0.0 | 0.00 | 0.00 | 0.00 | 56 | 1006.2 |
| 20260902130013 | 50 | 198 | 0.0 | 0.0 | 0.00 | 0.00 | 0.00 | 58 | 1006.1 |
| 20260902124511 | 50 | 198 | 0.0 | 0.0 | 0.00 | 0.00 | 0.00 | 54 | 1006.0 |
| 20260902123009 | 50 | 198 | 0.0 | 0.0 | 0.00 | 0.00 | 0.00 | 52 | 1005.8 |
| 20260902121506 | 51 | 198 | 0.0 | 0.0 | 0.00 | 0.00 | 0.00 | 52 | 1005.7 |
| 20260902120005 | 51 | 198 | 0.0 | 0.0 | 0.00 | 0.00 | 0.00 | 50 | 1005.9 |
| 20260902114503 | 52 | 198 | 0.0 | 3.0 | 0.00 | 0.00 | 0.00 | 48 | 1005.8 |
| 20260902113002 | 52 | 198 | 0.0 | 1.0 | 0.00 | 0.00 | 0.00 | 51 | 1005.7 |
| 20260902111501 | 52 | 198 | 0.0 | 2.0 | 0.00 | 0.00 | 0.00 | 50 | 1005.6 |
| 20260902110000 | 51 | 198 | 0.0 | 5.0 | 0.00 | 0.00 | 0.00 | 48 | 1005.7 |
| 20260902104600 | 52 | 198 | 0.0 | 2.0 | 0.00 | 0.00 | 0.00 | 49 | 1005.7 |
| 20260902103111 | 52 | 198 | 0.0 | 3.0 | 0.00 | 0.00 | 0.00 | 48 | 1005.6 |
| 20260902101559 | 52 | 198 | 0.0 | 3.0 | 0.00 | 0.00 | 0.00 | 47 | 1005.7 |
| 20260902100123 | 52 | 198 | 0.0 | 4.0 | 0.00 | 0.00 | 0.00 | 48 | 1005.6 |
| 20260902094615 | 52 | 198 | 0.0 | 1.0 | 0.00 | 0.00 | 0.00 | 46 | 1005.5 |
| 20260902093111 | 52 | 198 | 0.0 | 3.0 | 0.00 | 0.00 | 0.00 | 45 | 1005.7 |
| 20260902091553 | 52 | 198 | 0.0 | 4.0 | 0.00 | 0.00 | 0.00 | 45 | 1005.8 |
| 20260902090051 | 53 | 199 | 0.0 | 6.0 | 0.00 | 0.00 | 0.00 | 42 | 1005.7 |
| 20260902084550 | 53 | 200 | 2.0 | 6.0 | 0.00 | 0.00 | 0.00 | 40 | 1005.4 |
| 20260902083050 | 53 | 136 | 2.0 | 7.0 | 0.00 | 0.00 | 0.00 | 38 | 1005.4 |
| 20260902081550 | 53 | 134 | 0.0 | 2.0 | 0.00 | 0.00 | 0.00 | 37 | 1005.3 |
| 20260902080049 | 53 | 134 | 0.0 | 5.0 | 0.00 | 0.00 | 0.00 | 40 | 1005.6 |
| 20260902074544 | 53 | 138 | 0.0 | 1.0 | 0.00 | 0.00 | 0.00 | 43 | 1005.5 |
| 20260902073048 | 54 | 138 | 0.0 | 2.0 | 0.00 | 0.00 | 0.00 | 41 | 1005.1 |
| 20260902071545 | 54 | 138 | 0.0 | 3.0 | 0.00 | 0.00 | 0.00 | 42 | 1004.9 |
| 20260902070035 | 54 | 138 | 0.0 | 4.0 | 0.00 | 0.00 | 0.00 | 44 | 1004.5 |
| 20260902064540 | 54 | 138 | 0.0 | 2.0 | 0.00 | 0.00 | 0.00 | 44 | 1004.6 |
| 20260902063033 | 54 | 138 | 0.0 | 9.0 | 0.00 | 0.00 | 0.00 | 48 | 1004.4 |
| 20260902061532 | 54 | 124 | 0.0 | 8.0 | 0.00 | 0.00 | 0.00 | 48 | 1004.2 |
| 20260902060031 | 55 | 146 | 1.0 | 9.0 | 0.00 | 0.00 | 0.00 | 46 | 1004.2 |
| 20260902054538 | 55 | 135 | 1.0 | 10.0 | 0.00 | 0.00 | 0.00 | 48 | 1004.2 |
| 20260902053032 | 55 | 168 | 0.0 | 7.0 | 0.00 | 0.00 | 0.00 | 48 | 1004.1 |
| 20260902051528 | 56 | 154 | 1.0 | 6.0 | 0.00 | 0.00 | 0.00 | 46 | 1004.1 |
| 20260902050038 | 57 | 165 | 0.0 | 10.0 | 0.00 | 0.00 | 0.00 | 42 | 1004.0 |
| 20260902044526 | 58 | 150 | 1.0 | 6.0 | 0.00 | 0.00 | 0.00 | 38 | 1003.7 |
| 20260902043025 | 58 | 139 | 0.0 | 5.0 | 0.00 | 0.00 | 0.00 | 37 | 1003.7 |
| 20260902041525 | 59 | 132 | 1.0 | 6.0 | 0.00 | 0.00 | 0.00 | 36 | 1003.5 |
| 20260902040023 | 59 | 127 | 1.0 | 11.0 | 0.00 | 0.00 | 0.00 | 34 | 1003.3 |